Location: Unspecified
(40.8819°N, 0.0000°E)
Time: 08:05:26
(UTC+00:00)

NANOSAT C BR1 - Pass Details

Date: 27 April 2024
Orbit: 555 x 561 km, 98.1° (Epoch: 25 May)

Event Time Altitude Azimuth Distance (km) Brightness Sun altitude
Rises 03:51:49 0° 12° (NNE) 2,767 ? -13.0°
Maximum altitude 03:58:01 89° 97° (E) 570 ? -12.0°
Drops below altitude 10° 04:02:02 10° 194° (SSW) 1,852 ? -11.3°
Enters shadow 04:02:44 - 194° (SSW) 2,144 ? -11.2°
